Regional Weather Roundup
Issued by NWS

Home | Current Version | Previous Version | Graphics & Text | Print | Product List | Glossary On
Versions: 1 2 3 4 5 6 7 8 9 10 11 12 13 14 15 16 17 18 19 20 21 22 23 24 25 26 27 28 29 30 31 32 33 34 35 36 37 38 39 40 41 42 43 44 45 46 47 48 49 50
000
ASUS43 KLSX 262107
RWRMO

WEATHER SUMMARY FOR MISSOURI
NATIONAL WEATHER SERVICE SPRINGFIELD MO
400 PM CDT SUN APR 26 2015

NOTE: "FAIR" INDICATES FEW OR NO CLOUDS BELOW 12,000 FEET WITH NO
       SIGNIFICANT WEATHER AND/OR OBSTRUCTIONS TO VISIBILITY.
       CURRENT SKY AND/OR WEATHER CONDITIONS ARE NOT AVAILABLE FOR
       CHILLICOTHE AND FARMINGTON.

MOZ001>031-035>038-043-044-053-054-262200-
...NORTHERN AND WESTERN MISSOURI...

CITY           SKY/WX    TMP DP  RH WIND       PRES   REMARKS
KANSAS CTY INT MOSUNNY   61  43  51 NE13G21   29.94F
KANSAS C DTWN  LGT RAIN  63  42  46 E14G23    29.93F
LEE`S SUMMIT   PTSUNNY   60  42  51 NE13      29.94F
ST JOSEPH      SUNNY     62  38  40 E10       29.96F
CHILLICOTHE      N/A     63  39  41 NE14      29.97F
KIRKSVILLE     SUNNY     61  39  44 NE12G21   29.98F

$$
MOZ066>068-077>081-088>096-101>105-262200-
...SOUTHWEST MISSOURI...

CITY           SKY/WX    TMP DP  RH WIND       PRES   REMARKS
SPRINGFIELD    CLOUDY    53  44  71 NE12      29.90F
JOPLIN         CLOUDY    56  47  71 NE15G22   29.88S

$$
MOZ032>034-039>042-045>050-055>058-069>072-262200-
...CENTRAL MISSOURI...

CITY           SKY/WX    TMP DP  RH WIND       PRES   REMARKS
COLUMBIA       SUNNY     61  37  41 E15G23    29.93F
JEFFERSON CITY SUNNY     64  33  31 E15G23    29.92F
ROLLA          SUNNY     61  37  41 NE8G18    29.90F
SEDALIA        SUNNY     63  41  44 NE12G22   29.94F
WHITEMAN AFB   SUNNY     63  43  48 NE14      29.92F
WARRENSBURG    SUNNY     63  39  42 NE12      29.93F
OSAGE BEACH    PTSUNNY   63  43  48 E8G17     29.91F

$$
MOZ051-052-059>065-262200-
...EAST CENTRAL MISSOURI...

CITY           SKY/WX    TMP DP  RH WIND       PRES   REMARKS
ST LOUIS INTL  MOSUNNY   63  38  39 N14       29.94S
SPIRIT OF STL  SUNNY     62  36  37 NE9G17    29.92F
ST CHARLES     SUNNY     62  37  39 NE16      29.93F

$$
MOZ072>076-082>087-097>100-106>115-262200-
...SOUTH CENTRAL AND SOUTHEAST MISSOURI...

CITY           SKY/WX    TMP DP  RH WIND       PRES   REMARKS
CAPE GIRARDEAU MOSUNNY   64  44  48 N13G20    29.86F
FARMINGTON     SUNNY     61  36  39 NE14      29.93F
POPLAR BLUFF   MOSUNNY   64  48  56 NE9       29.86F
WEST PLAINS    CLOUDY    56  45  66 NE8       29.90F

$$



USA.gov is the U.S. government's official web portal to all federal, state and local government web resources and services.